Weather History for Muskogee, OK

Change the Weather History Date:

Monday, January 28, 2013

  Actual Average Record
Temperature  
Mean Temperature 64 °F -  
Max Temperature 73 °F 48 °F 73 °F (2013)
Min Temperature 55 °F 28 °F 7 °F (1997)
Degree Days  
Heating Degree Days 1    
Growing Degree Days 14 (Base 50)    
Moisture  
Dew Point 62 °F    
Average Humidity 78    
Maximum Humidity 96    
Minimum Humidity 66    
Precipitation  
Precipitation 0.00 in - - ()
Sea Level Pressure  
Sea Level Pressure 29.91 in    
Wind  
Wind Speed 15 mph (South)    
Max Wind Speed 24 mph    
Max Gust Speed 33 mph    
Visibility 10 miles    
Events      
Averages and records for this station are not official NWS values.
T = Trace of Precipitation, MM = Missing Value Source: NWS Daily Summary

Daily Weather History Graph

Daily Weather History Graph

Search for Another Location

Airport:

Trip Planner

Search our weather history database for the weather conditions in past years. The results will help you decide how hot, cold, wet, or windy it might be!

Date:

Astronomy

Jan. 28, 2013 Rise Set
Actual Time 7:24 AM CST 5:45 PM CST
Civil Twilight 6:57 AM CST 6:12 PM CST
Nautical Twilight 6:26 AM CST 6:42 PM CST
Astronomical Twilight 5:56 AM CST 7:13 PM CST
Moon 7:35 PM CST 7:55 AM CST
Length of Visible Light 11h 15m
Length of Day
10h 21m
Full, 98% of the Moon is Illuminated
Jan 28
Full
Feb 3
Last Quarter
Feb 10
New
Feb 17
First Quarter
Feb 25
Full

Hourly Weather History & Observations

Time (CST) Temp. Dew Point Humidity Pressure Visibility Wind Dir Wind Speed Gust Speed Precip Events Conditions
12:53 AM 55.0 °F 54.0 °F 96% 29.93 in 8.0 mi SE 8.1 mph - N/A   Clear
1:10 AM 57.2 °F 55.4 °F 94% 29.94 in 9.0 mi SSE 6.9 mph - N/A   Mostly Cloudy
1:53 AM 59.0 °F 57.0 °F 93% 29.94 in 10.0 mi SE 9.2 mph - N/A   Overcast
2:53 AM 66.0 °F 62.1 °F 87% 29.94 in 10.0 mi South 18.4 mph 25.3 mph N/A   Overcast
3:53 AM 66.9 °F 62.1 °F 84% 29.92 in 10.0 mi South 20.7 mph 32.2 mph N/A   Overcast
4:53 AM 66.9 °F 62.1 °F 84% 29.92 in 10.0 mi South 17.3 mph 29.9 mph N/A   Overcast
5:53 AM 66.9 °F 62.1 °F 84% 29.94 in 10.0 mi South 17.3 mph 29.9 mph N/A   Overcast
6:53 AM 66.9 °F 62.1 °F 84% 29.95 in 10.0 mi South 16.1 mph 25.3 mph N/A   Overcast
7:53 AM 66.9 °F 62.1 °F 84% 29.96 in 10.0 mi South 11.5 mph 21.9 mph N/A   Overcast
8:23 AM 68.0 °F 62.6 °F 83% 29.97 in 10.0 mi South 15.0 mph 23.0 mph N/A   Overcast
8:53 AM 69.1 °F 62.1 °F 78% 29.96 in 10.0 mi South 19.6 mph 29.9 mph N/A   Mostly Cloudy
9:53 AM 69.1 °F 62.1 °F 78% 29.97 in 10.0 mi South 21.9 mph 28.8 mph N/A   Overcast
10:31 AM 69.8 °F 62.6 °F 78% 29.99 in 10.0 mi South 19.6 mph 32.2 mph N/A   Overcast
10:39 AM 69.8 °F 62.6 °F 78% 29.99 in 10.0 mi South 24.2 mph 31.1 mph N/A   Overcast
10:53 AM 70.0 °F 62.1 °F 76% 29.98 in 10.0 mi South 19.6 mph 33.4 mph N/A   Overcast
11:36 AM 71.6 °F 62.6 °F 73% 29.98 in 10.0 mi South 19.6 mph 31.1 mph N/A   Overcast
11:53 AM 71.1 °F 62.1 °F 73% 29.96 in 10.0 mi SSW 18.4 mph 26.5 mph N/A   Overcast
12:43 PM 71.6 °F 62.6 °F 73% 29.93 in 10.0 mi South 18.4 mph 25.3 mph N/A   Overcast
12:53 PM 71.1 °F 62.1 °F 73% 29.92 in 10.0 mi South 19.6 mph 25.3 mph N/A   Overcast
1:46 PM 73.4 °F 62.6 °F 69% 29.90 in 10.0 mi South 16.1 mph 24.2 mph N/A   Overcast
1:53 PM 73.0 °F 62.1 °F 68% 29.88 in 10.0 mi South 17.3 mph 25.3 mph N/A   Overcast
2:53 PM 73.0 °F 61.0 °F 66% 29.86 in 10.0 mi South 17.3 mph 21.9 mph N/A   Overcast
3:53 PM 73.0 °F 62.1 °F 68% 29.84 in 10.0 mi South 17.3 mph - N/A   Overcast
4:53 PM 71.1 °F 62.1 °F 73% 29.83 in 10.0 mi South 18.4 mph 26.5 mph N/A   Overcast
5:53 PM 71.1 °F 62.1 °F 73% 29.83 in 10.0 mi South 13.8 mph - N/A   Overcast
6:53 PM 71.1 °F 62.1 °F 73% 29.83 in 10.0 mi South 16.1 mph 24.2 mph N/A   Overcast
7:53 PM 71.1 °F 63.0 °F 75% 29.84 in 10.0 mi South 17.3 mph 26.5 mph N/A   Overcast
8:53 PM 70.0 °F 62.1 °F 76% 29.83 in 10.0 mi SSE 15.0 mph - N/A   Overcast
9:53 PM 69.1 °F 62.1 °F 78% 29.81 in 10.0 mi SSE 15.0 mph 26.5 mph N/A   Overcast
10:53 PM 69.1 °F 62.1 °F 78% 29.81 in 10.0 mi SSE 15.0 mph - N/A   Mostly Cloudy
11:53 PM 68.0 °F 61.0 °F 78% 29.79 in 10.0 mi SSE 12.7 mph - N/A   Partly Cloudy